Theta_e
311 301 298 298 299 302 304 306 306 307 306 305 304 303 299 300 300 302 305 309 311 306 304 304 303 304 306 307 309 311 312 311 310 309 309 309 310 310 311 312 313 314 315 319 322 323 324 325 327 327 328 328 328 328 328 327 328 328 328 329 328 329 330 330 328 326 324 324 324 324 323 323 325 328 328 328 327 328 328 327 326 326 325 324 327 327
308 299 299 303 304 305 305 307 307 307 307 304 302 300 297 300 297 302 303 308 311 305 301 305 303 304 306 308 309 311 311 309 309 308 308 309 310 310 311 312 312 314 318 320 320 322 324 325 327 327 327 329 326 327 327 327 327 327 327 328 328 328 329 327 329 330 327 324 324 325 326 325 326 326 325 325 329 329 330 328 327 326 326 325 326 328
299 298 302 305 307 307 307 307 308 307 306 305 302 299 298 297 299 303 304 309 309 306 298 303 301 303 305 307 309 310 310 310 311 310 309 310 309 310 311 312 313 315 316 318 320 322 323 325 326 327 327 327 327 327 326 327 327 327 328 327 328 327 328 328 331 328 328 328 328 326 325 326 326 327 327 327 330 330 328 327 328 328 326 326 326 327
296 297 303 306 306 305 304 304 306 306 306 302 300 298 294 299 297 294 302 304 307 304 300 302 301 301 305 306 307 309 310 310 311 311 310 312 310 311 312 312 314 315 316 316 318 321 322 325 325 326 326 327 327 328 326 326 327 328 329 327 327 328 327 329 333 333 330 331 330 328 329 328 327 326 331 328 327 328 328 327 327 327 325 325 324 325
299 303 306 305 304 304 303 303 304 302 300 306 302 298 297 300 301 300 301 307 306 306 306 302 299 297 300 300 302 306 309 309 309 311 310 312 312 313 314 314 315 316 316 316 318 320 322 323 324 325 327 327 327 327 326 326 328 330 328 328 328 328 328 329 335 331 331 332 328 329 330 331 329 329 326 325 325 325 330 328 327 327 327 326 326 325
301 306 307 304 304 304 302 300 302 302 297 299 304 304 304 303 303 304 305 304 295 296 306 301 289 291 297 300 301 304 304 306 308 308 309 310 310 311 312 312 315 317 318 317 318 320 322 323 323 325 326 327 327 327 328 327 329 329 328 329 327 327 328 330 328 330 331 332 327 325 324 323 321 322 322 321 322 323 324 326 328 328 329 329 327 327
301 306 304 302 301 302 301 300 304 304 297 296 299 306 306 305 305 304 302 298 289 289 300 303 290 286 294 297 300 301 303 305 305 307 309 309 310 311 312 313 314 316 316 318 319 321 321 322 323 324 326 327 327 327 329 329 329 330 329 329 329 328 328 330 330 330 332 327 327 326 325 324 324 323 322 323 324 324 326 326 328 327 329 329 329 328
305 304 303 302 302 300 300 299 303 303 299 295 303 305 306 305 305 305 303 300 296 303 302 305 296 289 290 296 301 302 301 303 303 306 307 309 310 311 312 313 315 316 317 317 318 320 321 322 323 324 326 327 328 328 329 329 328 329 330 328 329 329 331 331 331 331 331 329 327 325 325 326 324 324 325 327 326 327 328 327 327 328 328 329 328 328
303 301 301 300 301 298 298 302 305 304 300 299 305 306 305 306 305 306 303 300 305 298 292 295 300 290 288 294 302 303 300 300 302 304 306 308 310 311 312 314 315 317 317 318 318 319 320 322 324 325 326 328 329 329 328 329 329 330 330 330 329 330 330 331 331 332 331 331 329 328 327 326 325 326 327 329 331 330 328 327 327 327 327 329 330 330
302 303 303 302 298 295 299 303 306 304 301 305 307 309 308 307 306 305 300 300 298 293 287 293 298 288 286 292 297 301 300 300 302 304 306 307 309 311 312 314 315 316 317 319 319 320 321 323 324 326 327 327 328 329 330 329 330 329 329 329 329 329 329 331 330 332 330 331 330 327 326 326 326 326 325 327 327 327 326 326 326 327 327 328 329 330
302 308 311 304 299 299 301 305 307 306 307 310 309 306 304 305 303 303 301 297 292 286 290 298 301 292 286 290 296 297 299 302 303 303 305 308 309 311 313 315 315 316 317 318 319 320 321 324 325 326 326 326 327 328 329 329 330 329 329 329 327 329 330 331 330 329 329 328 329 328 327 328 327 326 326 325 325 325 326 327 326 327 328 328 329 329
302 302 301 302 308 304 305 303 307 310 310 308 302 300 299 296 295 295 296 293 287 283 292 299 301 297 286 286 294 301 302 304 305 304 304 306 307 310 312 315 316 316 317 318 319 320 321 322 324 325 325 325 326 327 327 329 329 329 329 329 327 327 329 329 331 329 329 328 329 329 328 328 328 328 327 327 327 326 327 327 327 327 328 328 329 330
296 299 301 303 309 304 301 303 303 305 305 303 300 297 292 286 284 285 287 286 284 284 294 301 300 292 290 293 297 301 304 305 306 307 306 307 308 310 312 314 315 317 317 318 319 319 320 322 323 323 324 324 325 326 327 328 328 328 329 328 326 327 329 329 330 329 329 328 329 329 328 328 329 328 328 328 327 327 328 328 327 326 326 327 329 328
293 298 302 301 303 305 304 300 296 297 300 301 298 292 286 283 283 281 281 285 284 293 300 299 302 292 292 296 302 302 304 307 307 307 308 309 308 310 312 313 315 316 317 317 319 320 320 322 324 324 323 324 326 326 327 328 328 328 328 328 327 328 328 328 330 329 328 328 329 329 329 327 329 328 328 328 329 328 329 329 328 328 327 328 327 327
285 288 294 299 295 304 300 301 304 302 301 301 299 296 291 285 283 281 282 282 283 286 293 299 293 286 286 293 302 305 307 307 308 308 308 309 310 311 312 314 316 316 317 318 319 320 320 323 324 323 324 324 325 325 326 327 327 328 327 328 327 327 328 328 330 328 328 328 328 328 330 331 330 328 328 328 329 329 329 328 329 330 328 328 327 330
294 290 298 303 302 302 301 302 305 303 298 298 301 298 294 291 290 284 286 284 287 288 288 291 288 291 292 300 305 305 306 307 309 307 308 307 309 310 311 313 314 316 317 319 319 320 321 323 323 323 324 324 325 325 326 327 327 327 327 328 327 328 329 328 331 329 328 329 330 328 329 330 332 332 330 330 332 330 331 331 331 330 331 331 331 331
291 290 299 303 304 301 300 303 305 306 293 296 299 294 296 301 297 286 288 292 289 285 287 286 292 294 299 299 302 304 305 306 306 306 307 306 308 309 311 312 314 316 317 319 320 321 321 322 323 323 324 324 324 325 325 327 327 328 327 328 327 328 329 329 330 329 328 329 328 329 329 330 332 331 329 329 330 331 331 331 330 332 333 333 333 334
291 290 299 301 299 302 305 303 307 304 303 298 293 297 303 304 301 290 285 284 282 283 283 291 289 289 290 287 300 301 303 303 305 305 306 306 308 309 311 312 314 316 318 320 321 322 322 323 322 324 324 324 324 325 325 327 328 328 328 329 327 328 328 329 330 330 329 329 328 329 329 330 331 331 330 330 332 332 331 329 331 332 331 331 334 335
298 292 294 300 301 302 303 302 299 301 308 302 299 304 297 288 292 292 285 282 280 281 280 286 291 290 292 292 296 299 301 300 303 304 304 304 308 309 311 313 314 316 318 319 320 321 322 322 322 324 323 324 324 326 326 328 328 329 328 329 328 329 329 330 331 331 331 330 330 331 331 330 330 331 331 331 334 333 332 332 331 330 329 330 333 335
300 290 292 300 300 300 300 296 291 297 301 301 304 301 303 296 289 289 287 287 285 281 281 284 287 286 295 294 300 301 301 299 301 303 304 305 308 309 311 312 313 315 317 318 320 321 322 322 322 324 323 324 323 325 326 327 328 328 329 329 329 329 329 330 330 331 330 330 331 331 331 330 332 332 332 331 333 332 333 332 330 329 327 332 334 334
295 294 286 295 303 299 293 297 293 294 296 295 296 295 298 298 299 295 296 292 284 281 279 282 282 286 293 300 301 302 302 301 303 305 305 305 308 310 312 312 313 316 317 318 320 321 322 321 323 324 325 325 324 326 327 327 327 329 329 329 329 329 329 329 331 330 330 331 330 331 331 330 330 331 331 332 333 332 332 332 332 331 330 332 332 333
289 294 286 290 295 294 297 301 300 299 298 296 294 293 294 293 292 288 286 293 292 286 283 281 282 285 295 305 304 303 304 303 305 305 306 306 308 310 311 311 313 316 317 318 319 321 322 321 323 325 325 325 324 325 325 327 328 328 328 329 329 329 330 329 330 331 330 331 331 330 331 331 329 332 331 332 332 332 332 332 331 332 331 331 333 333
297 294 291 289 290 293 300 302 304 305 303 301 300 298 300 295 293 285 283 289 292 293 293 287 285 289 299 303 305 306 306 307 305 306 306 307 307 309 311 311 314 317 317 318 320 321 322 322 324 325 325 325 324 324 326 326 327 327 328 329 330 329 330 330 331 331 331 330 330 330 330 331 329 330 330 331 331 331 332 333 331 333 331 330 332 331
324 291 287 290 293 296 301 303 304 306 304 301 301 302 300 298 296 292 288 292 288 292 287 286 283 287 300 307 307 308 309 307 307 308 307 308 305 309 310 311 314 315 317 319 321 322 322 323 324 325 325 325 325 324 326 327 327 328 328 329 330 329 330 330 331 331 331 330 330 331 330 329 330 329 330 330 331 330 332 332 332 334 331 332 332 331
292 293 291 283 281 285 291 298 298 301 301 297 298 300 303 302 302 300 298 294 287 292 291 286 284 286 299 306 305 306 307 308 307 307 309 307 306 308 311 312 314 315 317 318 320 321 321 322 323 325 326 325 326 325 325 327 327 327 328 328 329 330 330 331 331 331 331 330 329 330 330 328 329 328 329 329 331 330 332 331 331 334 332 332 330 331
298 295 287 282 282 281 282 283 287 291 295 297 301 302 303 301 300 295 290 288 284 290 292 283 283 290 298 302 303 305 306 304 306 307 309 308 308 310 311 313 314 315 317 318 319 320 320 322 324 325 325 326 327 326 326 327 327 328 328 328 329 330 330 330 331 331 331 331 329 329 330 329 329 328 329 329 330 330 332 332 330 333 332 332 330 328
299 298 291 287 285 284 287 290 296 298 297 294 298 299 300 301 299 297 291 284 285 289 290 290 293 295 298 300 301 303 306 306 306 307 309 308 310 312 312 313 315 316 317 318 319 320 321 321 322 324 325 326 327 327 327 327 327 328 328 328 329 330 330 330 331 330 330 330 330 329 330 330 329 329 329 330 331 331 332 332 330 332 331 332 331 327
295 289 297 296 295 295 296 299 302 301 296 297 296 296 299 300 298 294 287 289 292 290 286 291 297 295 297 299 301 304 306 307 308 308 309 309 311 312 312 313 318 316 317 318 318 319 320 321 322 323 324 325 326 327 328 328 328 328 328 329 329 329 330 331 330 330 330 330 330 329 330 331 330 329 329 330 331 331 331 333 331 331 331 332 330 325
294 289 300 297 298 299 299 300 300 300 300 299 298 297 298 300 298 297 293 295 293 286 288 293 297 296 298 301 303 302 306 307 306 308 310 312 311 312 312 312 313 315 316 317 318 319 319 320 321 323 323 324 325 325 327 328 328 329 329 329 329 330 330 331 330 330 329 329 329 330 330 331 331 330 330 331 332 331 331 332 332 332 331 332 329 324
296 293 300 299 297 298 298 298 299 300 299 299 300 299 299 300 298 297 298 299 296 293 295 297 297 299 303 306 307 307 308 307 309 310 312 312 311 313 313 311 313 314 316 317 318 319 319 320 321 322 323 322 323 324 326 327 328 328 328 329 329 329 330 331 330 329 329 329 329 330 330 330 331 331 330 330 331 332 332 332 331 331 331 330 325 319
298 289 301 298 292 296 299 299 300 300 299 298 300 301 301 299 297 297 297 298 299 298 299 297 297 298 305 310 310 310 313 317 316 314 312 310 310 312 313 312 313 314 316 318 319 319 320 320 321 321 321 321 321 323 325 327 328 328 328 329 329 329 330 331 330 329 329 329 330 330 330 330 330 331 330 331 332 332 332 332 331 330 330 326 318 315
299 293 300 294 285 290 297 298 299 298 298 298 299 300 301 299 294 300 296 303 295 296 297 298 298 298 307 311 311 313 316 315 314 315 316 315 314 314 314 313 312 313 315 318 319 320 320 320 320 321 321 321 321 321 324 326 327 327 327 329 329 330 330 330 330 329 329 330 330 330 329 330 330 330 331 331 331 332 332 332 331 330 328 321 315 314
301 295 290 289 285 287 295 300 298 293 289 289 294 299 301 300 303 304 306 306 305 299 290 288 297 304 307 310 309 311 313 314 313 314 315 316 316 317 317 317 317 317 318 316 317 319 320 321 322 322 322 322 322 321 323 326 327 327 327 328 329 330 329 329 329 329 329 329 329 329 330 330 330 330 330 331 332 332 332 332 331 329 324 318 315 313
302 296 291 293 288 287 295 298 292 285 281 286 300 306 305 302 304 302 302 304 306 307 303 305 307 308 308 308 308 308 311 312 313 314 316 315 315 316 317 318 319 321 321 323 323 323 320 318 320 322 323 323 323 323 323 325 327 328 328 328 329 328 329 329 329 329 329 329 329 329 329 330 330 329 330 331 332 332 331 331 331 328 323 318 314 311
298 295 290 290 285 289 291 289 284 280 282 299 305 308 310 308 307 304 305 306 308 308 308 307 308 308 310 309 309 310 312 315 316 315 316 316 317 316 316 317 318 319 321 322 322 323 323 323 318 319 320 321 324 323 322 323 325 327 327 328 327 328 328 328 328 328 328 328 328 328 328 329 329 329 329 330 331 331 331 331 330 325 320 317 313 310
295 290 287 289 283 286 285 285 281 279 294 304 305 306 308 307 304 303 301 306 308 308 308 307 308 309 310 310 311 312 313 315 316 317 317 318 318 317 317 316 318 318 320 322 322 323 323 325 325 320 317 319 321 323 323 323 324 324 325 327 327 327 327 328 328 328 328 327 327 327 328 329 328 329 329 329 330 331 331 331 329 323 319 316 313 310
302 296 290 288 289 285 285 283 283 296 300 300 300 301 300 298 299 297 291 302 308 310 309 307 308 310 310 310 311 312 314 314 312 313 318 318 318 319 318 318 318 318 320 321 323 325 326 325 326 326 323 319 319 320 321 323 324 324 324 324 325 326 326 326 327 327 327 327 327 327 328 329 328 328 328 329 329 330 330 330 327 322 318 314 311 309
302 298 292 291 288 284 284 285 286 286 284 291 300 303 303 305 305 306 302 300 309 310 310 308 306 309 310 311 311 311 311 309 306 308 315 318 319 319 320 320 320 320 321 321 322 322 325 325 327 327 326 320 318 319 321 321 323 324 323 323 324 324 325 325 326 327 327 327 327 327 328 328 328 328 328 328 329 329 330 330 326 321 318 314 310 308
300 298 296 292 287 286 285 284 282 282 284 294 296 298 300 303 304 305 303 297 306 310 309 307 305 306 310 311 310 311 308 304 305 308 314 317 318 319 318 318 319 319 319 320 321 320 323 324 325 325 325 325 324 325 325 323 320 322 323 323 322 323 324 324 325 326 327 328 328 328 328 328 328 328 328 328 328 330 330 328 324 320 317 314 311 308
297 293 287 287 284 283 283 283 284 286 286 294 296 297 300 303 304 301 289 289 304 310 307 306 305 306 309 312 312 310 308 304 306 310 316 317 318 317 317 316 315 315 316 318 320 320 323 325 325 324 323 323 324 325 325 324 322 320 320 319 317 319 322 324 325 326 328 328 328 328 328 328 328 328 328 328 328 329 330 327 322 318 315 312 311 308
289 284 286 284 284 283 282 285 289 293 296 296 296 298 302 303 300 289 286 292 306 307 307 306 306 307 309 310 311 308 312 314 314 315 317 318 316 316 317 316 316 315 314 316 318 318 322 323 323 324 324 324 324 325 324 323 322 321 321 321 321 320 321 324 323 324 327 328 328 328 328 328 328 327 328 328 328 329 329 325 321 317 314 311 309 307
287 287 285 283 284 285 284 283 285 288 295 297 298 300 302 300 289 286 298 307 309 305 307 306 307 308 308 308 309 309 312 317 317 316 315 317 316 316 316 316 315 314 314 315 316 317 320 322 322 323 324 325 325 325 325 322 320 319 320 320 320 320 323 324 324 322 322 326 328 328 328 328 327 328 328 328 328 327 326 324 321 317 314 310 308 305
289 283 283 285 289 288 283 282 283 284 290 298 298 296 299 288 291 300 303 308 305 304 305 306 307 308 310 309 310 310 311 311 313 314 315 315 315 314 314 314 314 313 313 313 314 315 319 320 320 321 322 324 325 325 324 321 320 320 320 320 320 323 324 325 325 324 323 322 324 326 327 327 326 325 327 326 326 327 325 321 318 315 312 310 307 304
297 285 286 289 294 284 283 283 282 289 293 299 297 289 296 298 301 303 304 301 304 304 304 305 306 310 312 311 311 312 312 310 310 310 311 312 313 314 313 313 313 313 313 313 314 314 317 319 320 320 321 323 324 325 324 321 319 319 319 320 323 324 324 325 324 324 322 320 319 318 320 321 323 324 324 324 324 323 319 315 313 311 309 308 306 304
294 291 288 286 294 287 285 289 294 295 298 300 300 300 300 302 302 303 303 304 304 304 306 305 304 306 308 310 313 312 311 312 311 312 311 312 312 313 313 313 313 313 314 313 314 314 316 318 318 319 319 321 322 323 324 322 319 318 318 320 322 322 323 323 322 321 321 319 318 318 319 319 318 318 318 317 317 316 313 311 310 307 307 306 305 304
301 301 300 297 294 299 300 300 302 302 302 302 303 303 302 302 303 303 303 302 305 307 307 305 305 306 307 307 306 308 310 312 311 310 311 313 313 313 315 316 316 315 315 315 316 316 316 318 318 318 318 318 321 321 322 322 320 318 319 322 322 321 321 321 319 317 317 317 315 316 317 317 316 316 315 314 313 312 311 310 309 308 308 307 306 306
299 301 297 294 297 291 288 301 302 301 301 300 301 304 305 305 303 303 303 303 305 306 306 306 305 306 305 306 305 305 306 307 309 310 311 312 312 313 314 315 316 316 315 315 316 315 317 318 318 318 318 316 319 320 318 319 318 317 319 320 322 320 319 316 315 316 315 314 314 314 315 315 316 316 315 314 314 314 313 311 310 309 308 307 307 306
294 303 297 297 296 292 293 299 302 302 299 300 298 298 298 300 302 304 304 304 304 305 306 306 305 304 305 306 306 305 306 307 307 308 309 311 312 313 314 314 314 315 316 315 316 316 318 318 318 318 318 317 318 319 317 316 317 320 319 319 319 318 317 315 313 311 311 312 312 311 312 314 313 315 314 312 312 313 312 310 309 309 308 308 308 306
296 301 288 294 290 294 297 300 301 299 297 297 298 298 298 298 299 301 301 302 303 304 305 306 305 305 306 307 307 307 306 306 306 306 307 309 310 310 311 312 312 313 314 314 315 315 317 317 317 317 318 318 319 319 317 316 318 321 319 320 319 317 314 313 310 312 312 312 310 309 309 310 312 311 310 308 303 299 300 305 309 309 308 308 310 309
296 292 294 294 288 285 286 291 294 287 288 294 296 298 299 300 300 301 301 302 302 303 303 304 305 305 305 306 306 305 305 304 304 304 304 305 305 306 307 308 309 310 311 313 315 314 313 313 314 314 315 316 317 318 318 317 318 320 320 319 319 318 317 316 314 313 311 311 310 309 309 309 308 309 308 305 303 301 299 293 293 298 305 306 307 305
293 294 289 284 285 287 294 297 297 293 293 294 296 299 300 301 301 301 301 302 303 303 304 304 305 305 305 304 304 304 304 303 304 305 304 304 304 305 306 307 307 308 308 310 311 311 310 310 312 312 311 312 313 315 318 319 320 320 319 319 317 317 316 317 316 314 311 311 310 309 310 309 308 307 306 304 303 303 301 301 299 292 290 294 302 300
Wind_Speed
5 4 5 7 9 11 9 12 12 11 7 4 3 2 6 7 6 4 10 10 14 9 9 11 6 8 10 13 13 12 11 10 8 9 8 7 8 9 9 10 10 9 9 8 10 10 11 8 8 8 7 6 6 5 5 5 5 5 5 4 4 3 2 4 3 2 3 3 2 3 3 3 1 3 3 3 3 3 1 2 3 3 3 2 2 2
7 5 8 12 14 11 10 11 11 8 5 7 6 5 6 6 7 7 7 11 11 8 5 9 9 9 13 12 13 11 10 12 11 10 9 8 9 8 10 10 8 7 4 7 7 6 7 7 7 7 7 7 7 5 5 7 7 5 4 4 4 2 2 3 4 3 3 2 4 4 4 2 2 4 4 3 4 3 2 2 2 3 3 2 2 1
4 9 14 15 15 8 4 9 10 10 7 7 5 2 3 7 5 1 7 12 10 6 4 12 12 11 12 13 12 12 14 12 12 12 12 11 9 8 8 8 7 7 8 7 9 8 9 8 8 7 7 7 8 6 6 6 6 5 5 4 4 3 3 3 4 5 4 2 3 4 3 4 1 0 2 2 2 4 3 2 1 1 1 1 1 0
5 7 16 13 6 6 5 6 11 8 4 2 4 4 4 3 5 3 6 1 4 4 5 11 10 8 9 8 10 13 14 11 12 14 11 12 11 12 12 11 11 11 11 11 11 11 9 10 8 7 7 7 6 5 4 5 7 5 5 4 4 3 3 3 3 4 4 5 4 4 5 3 3 3 2 3 3 3 4 4 2 1 2 2 2 2
10 13 7 4 3 6 6 1 12 6 3 3 3 1 2 7 4 5 2 3 3 1 10 9 4 2 5 7 7 10 12 10 12 12 10 10 11 12 11 10 14 15 14 12 9 9 9 9 9 10 9 7 7 6 6 6 6 5 6 5 5 4 3 3 3 4 4 5 4 4 4 4 4 4 3 3 4 3 2 3 4 1 0 1 3 4
10 14 5 5 7 5 7 3 10 9 7 3 1 3 4 5 11 6 2 2 3 2 1 11 3 5 6 9 11 9 6 9 8 12 12 12 9 8 11 12 11 14 14 15 15 14 13 11 8 6 8 8 7 7 7 5 6 5 6 5 4 3 3 4 4 4 4 5 6 4 5 4 3 3 3 3 3 3 4 2 0 3 3 3 4 4
8 5 3 6 4 1 3 7 13 13 7 5 4 5 4 12 11 9 5 4 1 2 2 2 6 2 2 6 9 6 7 9 5 12 13 11 9 9 11 11 12 12 10 8 9 10 10 9 9 8 9 9 9 7 6 5 5 6 6 5 5 5 4 4 4 3 3 4 3 5 5 5 6 5 2 2 2 3 1 2 4 3 3 4 4 3
3 6 4 4 1 1 3 6 9 11 10 4 4 8 8 14 10 3 4 3 2 2 4 2 3 4 4 8 7 7 7 7 6 10 12 11 9 10 11 12 12 13 13 12 12 12 12 12 13 12 11 10 10 7 6 6 5 6 6 5 5 4 4 4 4 3 3 4 3 3 4 4 5 5 5 4 3 1 1 4 3 4 3 3 3 4
3 4 2 4 3 3 7 7 10 9 8 6 10 11 11 15 11 7 4 3 2 2 4 4 2 3 2 5 2 5 7 6 9 10 11 11 11 11 13 14 14 15 15 14 12 12 12 12 11 9 9 9 8 7 8 7 6 6 6 6 4 5 4 4 4 4 4 4 4 5 5 4 3 4 5 3 3 3 2 3 2 3 3 3 3 3
2 5 7 6 3 5 4 7 14 11 4 1 8 2 4 11 8 5 3 4 2 3 4 4 1 1 3 4 1 3 7 10 11 11 12 12 13 13 13 13 14 12 11 12 15 14 12 11 10 10 9 8 8 8 7 6 6 5 5 5 5 5 4 4 4 4 4 4 5 5 4 5 4 3 3 4 5 4 3 4 2 2 3 2 3 2
6 6 7 4 5 6 7 10 14 10 6 11 7 11 8 8 5 3 4 3 4 0 7 6 3 4 1 5 7 9 10 11 9 6 5 8 10 12 13 14 13 12 12 11 10 11 11 10 10 9 10 8 6 7 7 6 7 6 6 6 6 6 5 4 4 4 5 4 4 5 6 6 5 4 4 4 4 3 3 4 2 2 1 0 1 1
6 5 3 2 3 4 8 6 5 7 11 12 3 5 7 5 6 5 3 5 2 3 6 4 4 5 3 3 5 7 2 8 13 12 10 9 11 11 11 12 13 13 12 10 10 9 8 6 6 7 8 7 7 7 7 6 7 7 6 7 6 4 5 5 4 4 4 4 3 4 6 7 6 6 5 6 5 4 4 4 4 3 1 1 0 1
7 8 2 5 4 9 6 11 3 4 2 9 8 7 7 1 4 1 3 1 2 3 3 2 7 3 4 7 5 5 7 6 10 12 12 14 12 12 13 14 12 12 11 11 11 10 9 10 11 10 8 7 7 9 8 8 8 7 7 8 7 6 6 6 4 5 5 4 4 4 6 6 7 6 6 6 5 4 5 5 4 3 3 1 0 1
7 6 4 5 4 3 13 13 4 2 1 9 9 6 6 3 0 1 2 1 3 6 1 2 1 2 3 8 8 10 10 10 10 9 11 14 13 13 13 12 11 11 13 12 12 11 11 11 11 11 10 10 9 9 9 8 8 7 7 7 7 7 6 5 5 6 5 4 4 4 6 6 6 6 6 6 6 5 5 5 5 5 5 4 3 1
1 5 3 2 2 1 4 11 16 11 13 11 2 7 6 6 4 2 2 2 4 5 2 2 1 2 1 1 2 10 10 9 8 7 9 13 14 14 13 13 13 12 11 12 11 12 13 12 12 11 10 10 10 10 8 8 8 8 7 8 7 6 6 5 6 5 5 4 3 4 5 6 5 6 6 6 6 6 5 4 4 4 3 3 2 4
3 4 9 4 5 0 3 2 4 7 4 1 2 4 5 3 6 2 5 5 3 1 1 1 2 4 3 4 5 2 4 6 7 6 6 6 7 10 10 11 12 12 12 11 11 11 11 12 11 10 9 10 10 10 8 9 8 8 8 8 8 8 7 6 6 5 6 5 4 4 5 5 6 5 6 6 5 5 5 5 5 4 4 3 4 3
3 1 6 6 3 5 6 4 4 11 3 4 2 3 4 4 9 4 1 2 3 4 1 1 5 4 6 5 5 4 7 5 5 6 7 8 9 11 12 12 12 12 11 11 11 11 12 10 10 11 11 10 10 10 10 10 9 10 9 8 8 7 7 6 7 7 5 5 4 4 4 4 6 7 7 7 6 6 5 5 4 5 4 4 4 4
4 5 5 2 7 4 1 3 12 5 7 5 1 5 1 3 6 5 2 2 2 2 2 2 1 5 5 2 4 4 6 5 6 5 7 9 11 13 12 13 14 14 14 14 14 13 14 14 13 11 11 12 12 12 11 11 9 9 9 9 9 8 9 8 7 7 6 5 5 5 4 4 6 7 7 6 6 6 5 4 4 4 5 5 4 4
4 4 4 5 6 8 3 5 6 4 7 11 9 6 6 1 0 2 4 0 1 0 2 1 2 4 2 3 3 1 1 5 6 5 8 11 13 13 12 12 12 11 11 12 13 13 12 12 12 12 12 12 12 12 12 11 11 9 8 9 9 10 10 10 8 7 6 6 5 5 6 6 5 6 6 5 6 5 6 5 5 5 5 4 4 4
2 4 4 3 2 3 4 4 1 3 6 5 4 5 0 5 3 3 3 3 7 1 2 2 3 1 3 1 1 2 2 3 5 6 9 13 14 13 13 13 12 13 13 13 13 13 14 14 14 14 14 14 13 12 11 11 10 11 10 10 9 7 7 7 8 7 7 6 6 6 5 5 6 6 6 5 6 6 6 6 6 5 4 5 4 5
2 1 2 4 2 2 3 2 2 6 3 2 2 1 0 2 2 6 1 1 3 4 2 1 1 3 5 5 4 6 5 6 9 11 10 12 12 14 15 14 13 14 13 13 13 13 13 14 13 12 13 13 11 10 10 10 11 11 9 10 10 11 10 9 10 8 8 7 7 7 7 7 7 7 7 6 6 6 6 6 6 5 6 4 5 4
2 1 5 4 2 2 4 3 3 5 4 5 5 4 5 6 4 3 1 2 2 3 2 3 1 7 8 3 6 4 5 4 7 5 11 11 13 14 15 15 15 14 15 14 13 13 12 12 12 11 11 10 11 10 12 11 11 10 10 10 10 10 10 10 10 9 8 7 7 8 8 8 7 8 6 7 7 7 7 6 6 6 4 5 6 6
2 3 2 1 4 2 2 3 3 4 5 5 8 2 3 2 6 6 3 1 4 1 5 2 4 2 3 2 4 3 2 6 7 6 4 6 11 13 15 16 16 18 16 14 14 13 13 13 13 14 15 16 16 13 13 12 13 13 12 12 11 11 11 10 10 9 8 7 8 9 7 7 7 7 8 8 8 7 7 6 6 5 6 5 6 5
6 2 2 4 6 3 3 2 6 8 4 7 6 3 2 1 1 7 6 6 6 0 2 1 1 4 5 4 1 1 3 5 1 11 4 3 4 8 12 12 13 11 12 12 12 12 11 10 10 10 11 12 12 12 13 13 12 12 12 12 11 12 12 10 9 9 8 8 8 8 7 7 7 8 8 9 8 9 7 7 6 6 6 6 6 6
1 2 3 1 3 4 6 7 7 6 7 3 1 2 1 3 5 3 5 2 5 1 5 6 3 2 2 4 5 5 4 1 3 4 15 8 7 7 9 11 11 11 10 10 11 11 10 10 12 13 13 14 13 12 11 11 12 13 13 12 12 12 12 11 10 10 9 9 8 8 8 7 7 8 8 9 8 9 8 8 7 6 6 6 6 6
6 2 3 2 1 2 1 2 2 2 1 0 1 3 3 4 1 1 1 2 3 1 4 1 2 6 6 5 4 4 2 4 4 4 2 9 7 8 6 10 10 10 13 13 12 10 13 14 13 12 12 12 12 12 11 10 11 12 12 13 11 11 10 11 10 10 10 9 10 8 8 8 7 8 8 9 8 9 9 8 7 7 6 7 7 6
1 1 4 5 4 5 3 3 3 2 2 3 5 1 1 3 6 6 5 3 4 3 2 3 4 1 4 4 4 5 5 3 3 3 3 2 6 11 9 10 11 13 13 15 14 13 10 9 12 13 12 13 12 12 12 11 11 10 10 11 10 10 11 10 10 10 10 10 11 10 10 9 9 8 8 8 8 8 7 8 8 7 8 7 8 8
3 4 3 3 2 2 3 0 1 3 1 0 3 4 5 4 3 5 2 3 4 8 1 2 2 2 3 4 6 5 4 2 2 1 1 5 1 8 10 7 9 10 11 10 9 11 14 15 14 12 12 11 11 12 11 12 12 12 12 12 11 10 10 9 10 10 10 10 11 11 12 11 9 8 8 7 7 7 7 8 8 8 7 7 8 8
4 2 2 3 1 1 1 3 4 3 1 3 3 5 2 2 1 1 2 3 5 3 6 2 3 4 2 6 8 4 1 1 1 2 1 2 5 7 4 3 6 9 10 11 12 12 12 13 12 13 12 13 11 12 12 12 12 11 12 12 12 11 12 11 10 11 11 11 11 12 11 10 8 8 8 8 7 8 8 8 8 7 7 7 7 7
4 1 0 1 1 3 4 6 5 6 2 4 6 5 1 3 2 2 1 2 4 3 6 7 6 8 4 8 12 10 7 4 5 2 1 5 6 10 11 7 9 9 10 12 12 13 13 14 13 13 13 12 13 13 12 12 12 13 13 13 12 12 12 11 12 12 11 12 13 11 10 9 8 9 9 9 9 10 9 8 7 7 7 7 7 8
3 1 4 1 3 4 4 5 8 6 7 5 6 8 9 6 4 4 4 4 1 5 3 5 9 5 4 6 7 6 4 8 12 13 9 8 9 4 3 9 11 12 12 13 14 14 13 12 11 11 12 13 13 14 14 14 14 14 14 13 13 14 13 12 12 12 12 13 12 11 9 9 9 8 10 10 10 9 9 9 7 7 7 7 8 9
5 0 2 3 3 3 4 7 3 4 8 8 7 10 11 9 5 5 6 5 2 1 2 8 7 4 7 11 6 10 13 15 13 13 13 10 8 8 9 10 7 4 5 8 10 11 11 10 10 13 14 15 14 14 14 14 14 13 14 14 14 14 12 12 13 14 14 13 11 10 10 10 9 9 10 9 10 9 9 8 7 7 7 8 9 8
1 3 2 2 5 2 4 1 2 2 4 4 7 8 7 1 6 5 9 13 10 1 6 3 0 2 4 6 5 11 12 14 15 14 12 12 12 13 12 10 11 12 12 11 10 8 7 10 14 15 15 14 14 14 16 16 14 14 15 14 15 12 11 13 14 14 14 13 12 12 12 10 10 11 10 10 10 9 8 8 7 7 8 10 10 9
1 3 2 3 4 3 5 3 2 4 1 0 3 7 1 3 9 14 10 10 13 10 4 2 1 4 4 4 6 4 10 10 7 7 8 9 9 11 11 10 10 9 8 7 5 6 6 6 6 7 11 14 15 16 15 14 16 16 15 15 12 12 13 14 13 13 14 13 13 13 12 11 11 11 11 10 9 8 8 8 9 8 8 8 8 10
1 1 1 2 4 2 1 2 4 0 2 4 1 6 10 16 16 16 14 14 13 10 8 6 6 8 7 4 2 1 1 7 10 14 13 12 10 9 9 9 10 8 7 4 4 3 4 5 4 8 8 9 9 8 7 10 13 13 12 11 12 13 13 14 14 13 13 13 13 12 12 12 12 12 11 10 9 9 9 9 7 8 9 9 11 11
3 4 2 1 2 2 2 2 0 2 2 2 2 5 5 4 4 4 12 14 12 13 9 7 7 8 8 7 5 1 2 4 6 12 13 13 12 9 8 8 8 8 8 6 3 3 4 3 3 3 7 6 9 10 10 12 11 11 12 11 13 13 13 13 13 13 12 12 12 12 12 12 12 12 10 10 10 10 11 10 9 10 9 9 9 8
5 3 5 0 0 3 2 3 2 1 1 2 3 4 6 3 5 3 3 8 10 8 10 9 9 9 10 9 6 3 3 3 9 10 11 12 11 10 8 8 8 8 7 7 7 7 6 4 3 3 2 6 6 1 6 8 9 12 11 11 12 12 12 12 13 13 13 13 13 13 13 13 13 12 12 11 12 12 12 11 9 9 10 10 10 10
4 8 4 4 3 5 5 2 2 1 3 4 1 5 3 3 4 3 7 2 8 8 7 7 9 10 10 10 11 6 0 9 8 6 8 9 8 8 7 8 9 11 12 12 13 12 9 8 9 9 10 7 3 2 3 5 7 10 11 12 12 11 11 11 13 13 13 14 14 13 13 12 13 13 13 12 13 14 12 11 9 11 11 13 12 10
8 5 4 8 4 3 2 5 4 5 4 3 5 8 10 6 3 3 3 5 6 8 7 5 8 10 9 11 11 9 3 5 1 3 6 7 6 6 7 8 8 9 11 12 12 14 13 12 9 10 13 13 13 9 8 7 5 7 10 11 11 11 12 13 13 13 14 14 13 13 13 13 13 14 14 14 14 14 13 12 12 12 11 11 11 11
9 5 4 4 2 2 5 4 3 1 1 2 7 9 11 10 5 3 1 2 6 7 6 6 8 9 10 10 7 8 8 4 2 5 7 6 4 5 8 9 11 11 12 12 13 13 8 9 13 15 13 13 10 10 12 10 9 7 8 8 4 3 6 10 14 14 14 13 13 13 13 12 14 14 14 14 14 13 13 10 10 11 12 10 10 11
5 4 6 4 3 2 6 1 2 0 2 2 6 10 11 6 3 5 6 1 4 5 4 4 6 7 8 10 10 8 7 5 3 4 7 5 6 11 11 8 5 7 10 11 11 12 10 10 10 10 10 7 8 9 9 10 12 11 10 10 10 11 11 13 12 8 9 11 12 13 14 13 13 14 14 14 15 14 11 11 12 13 13 12 10 11
3 1 3 2 5 2 1 6 2 2 3 3 8 8 8 2 0 6 2 2 4 4 4 5 6 6 6 7 7 7 7 5 2 3 5 6 6 5 5 7 8 11 10 9 12 13 11 10 10 10 11 10 9 8 8 7 8 7 8 9 9 5 5 11 14 12 7 8 11 12 13 14 13 13 13 14 12 11 11 12 14 14 14 12 12 13
1 2 1 1 0 1 3 4 2 1 1 6 10 3 4 5 3 3 2 2 4 4 5 5 4 5 6 6 6 6 7 7 6 6 6 6 5 5 5 7 9 10 10 11 13 13 11 11 11 11 9 9 9 7 6 6 7 5 4 8 4 3 7 8 9 9 12 14 12 9 10 10 12 11 9 9 11 13 11 9 10 9 11 12 11 12
2 2 0 1 2 2 1 2 2 1 3 9 4 5 2 2 1 1 1 1 2 2 4 4 6 6 4 3 4 3 4 7 8 8 8 8 9 7 4 2 4 7 8 6 5 8 8 9 9 9 8 8 8 8 6 8 7 6 6 5 6 7 7 6 10 9 6 4 6 9 6 3 4 6 6 8 8 8 10 9 8 7 6 5 8 11
1 1 2 3 3 1 2 4 4 3 2 4 4 4 2 3 4 2 3 2 2 3 2 2 4 6 5 2 2 4 3 2 2 4 5 7 5 5 6 7 5 5 6 6 4 6 6 7 6 7 8 7 7 7 8 6 6 5 5 6 5 5 5 7 7 5 8 4 4 6 6 7 9 9 8 7 4 7 8 9 9 10 9 12 11 11
1 5 5 7 3 5 6 3 3 1 0 1 2 1 2 1 2 2 1 2 0 1 2 1 2 2 3 3 0 2 3 4 3 4 5 7 7 7 7 8 7 5 4 6 7 7 5 5 5 6 8 8 7 6 6 6 6 8 5 6 6 4 2 3 4 8 6 3 3 1 2 6 8 9 10 11 10 10 8 9 8 8 9 11 11 12
1 2 3 6 3 3 2 2 0 0 0 1 1 0 0 0 1 2 0 1 2 3 4 4 3 4 3 3 2 3 5 4 4 4 4 5 6 8 8 7 8 8 7 6 7 7 7 5 7 7 7 7 7 6 4 4 3 4 4 6 7 6 4 3 1 0 1 3 3 1 4 7 6 8 11 13 11 11 12 13 12 12 11 8 8 7
3 1 7 3 2 3 3 2 1 1 0 1 2 1 0 1 2 3 3 3 3 3 3 4 4 4 3 4 4 4 6 7 7 8 7 6 6 7 8 8 8 9 10 8 8 7 8 9 9 8 6 5 5 6 5 2 3 3 0 1 3 5 5 4 0 3 3 1 1 1 1 2 6 7 6 5 6 9 8 5 6 9 10 12 12 10
3 1 3 2 4 3 5 3 2 2 2 2 3 3 3 3 2 3 3 3 3 3 3 3 3 3 3 4 5 6 8 9 7 6 8 8 9 9 9 8 7 7 7 8 9 9 9 8 8 9 9 10 6 5 6 5 4 0 2 4 4 2 1 1 2 2 1 0 2 1 0 3 3 5 7 6 6 6 4 2 5 5 5 2 6 12
6 3 1 5 6 2 3 3 3 4 1 1 2 3 3 4 3 3 3 4 4 3 3 4 5 4 4 5 6 7 7 7 8 6 8 8 8 8 9 9 9 9 10 9 6 6 7 8 7 7 9 9 9 8 6 6 5 4 2 0 1 1 3 4 3 1 2 2 1 1 2 2 2 2 5 6 6 6 5 8 8 4 3 2 4 4
5 3 4 3 5 3 2 5 4 4 4 3 3 2 4 3 3 2 3 3 4 3 2 2 4 7 9 9 7 7 7 7 7 7 8 8 8 8 9 9 9 8 8 6 7 8 8 7 7 8 10 10 9 9 8 7 7 6 5 5 2 1 2 1 1 2 4 3 1 1 1 2 2 3 4 4 3 5 6 5 6 10 10 5 2 6
Wind_Direction
134 186 202 215 222 217 200 181 182 239 214 212 212 202 240 222 251 243 198 168 174 161 192 182 178 180 192 194 195 198 197 209 204 205 206 186 172 174 174 178 182 179 189 180 163 163 162 161 159 150 146 151 149 150 145 143 150 156 162 152 176 210 168 131 135 125 121 107 67 55 74 112 63 89 66 57 77 77 109 128 109 92 68 54 64 37
117 201 241 226 229 216 204 184 186 219 267 232 243 229 239 207 242 233 186 161 171 166 190 171 166 186 197 200 200 196 192 207 202 200 202 189 178 179 167 173 170 170 142 139 141 155 149 154 156 150 148 150 147 173 150 155 163 169 154 163 186 206 140 139 144 145 143 173 167 149 167 156 123 94 84 61 52 97 110 118 120 109 104 100 110 104
160 203 234 229 230 232 201 172 179 168 214 253 223 258 332 289 223 36 113 156 180 182 186 164 169 191 201 203 202 195 198 206 200 194 194 185 179 179 169 165 140 147 153 155 157 160 164 160 156 153 155 158 161 171 164 164 159 162 160 175 175 184 149 160 144 121 124 129 135 130 178 142 126 335 151 137 90 85 80 60 81 90 92 102 107 40
239 265 243 239 211 193 240 174 176 160 180 261 346 359 282 281 93 66 72 71 193 180 172 167 162 199 210 210 205 205 201 204 201 192 190 187 177 179 178 166 155 156 157 166 167 170 171 165 159 154 157 162 158 165 162 155 165 162 165 168 172 183 160 148 130 117 130 138 154 139 143 131 129 149 59 49 23 57 78 66 62 58 141 150 121 97
211 236 231 250 181 181 238 260 147 137 215 262 163 134 289 45 49 128 196 193 285 21 143 123 97 198 212 205 216 215 209 205 188 183 186 192 186 181 171 161 160 164 167 166 165 166 168 170 170 167 165 157 162 170 174 165 166 165 169 173 174 168 167 159 134 128 130 105 94 86 71 82 68 42 39 41 26 27 54 78 56 21 21 66 60 67
262 255 245 269 275 171 167 205 158 135 195 261 241 178 180 111 94 86 123 173 30 23 209 143 104 226 226 218 211 198 195 211 179 172 183 189 184 154 164 172 173 168 168 166 172 175 174 172 168 163 158 163 168 172 182 167 163 157 171 168 169 156 162 154 151 147 130 135 133 119 116 109 95 108 93 102 117 82 74 77 305 38 41 66 55 44
230 267 159 221 211 276 194 167 178 155 174 139 254 184 181 106 79 66 79 82 37 129 261 157 138 242 283 229 227 215 197 204 180 174 183 186 177 167 166 168 172 170 176 176 166 164 164 170 165 173 169 171 172 181 173 164 159 164 169 167 162 165 170 164 169 155 135 130 138 144 152 149 146 146 198 202 170 134 152 75 57 40 34 51 78 55
256 275 282 277 194 130 134 163 193 155 133 193 204 191 129 76 69 85 92 112 197 226 272 44 140 142 188 242 229 213 191 201 187 185 182 189 179 172 168 171 172 174 172 172 174 176 173 172 172 178 177 173 177 172 164 168 159 163 171 164 162 167 165 180 174 162 156 155 152 127 131 137 141 149 161 161 169 156 136 74 49 52 30 40 57 66
192 269 208 245 246 194 220 177 181 144 145 193 176 200 129 121 136 158 151 152 157 83 298 322 14 67 257 256 261 184 193 220 204 193 190 189 182 175 172 177 176 175 175 171 172 177 176 176 180 173 175 178 167 166 169 171 170 165 168 164 153 166 169 192 177 169 183 170 161 154 145 138 159 147 151 147 133 135 107 88 45 54 29 33 31 60
265 214 254 236 168 204 207 159 164 165 89 213 152 25 65 123 142 148 130 104 31 69 271 269 174 139 287 277 256 185 206 204 206 195 193 191 184 176 176 180 177 173 175 179 177 176 177 178 176 177 170 167 172 171 168 162 161 165 162 166 154 171 181 189 187 173 181 162 147 142 147 142 154 133 114 118 132 135 121 105 79 57 48 37 60 36
249 280 261 251 226 211 167 164 159 160 139 109 111 83 55 47 36 46 69 85 59 6 255 226 184 134 260 260 190 167 210 192 187 200 205 200 185 176 176 175 174 174 177 179 179 179 178 177 167 160 169 174 163 167 165 160 167 164 165 169 163 179 186 188 188 178 189 163 146 142 152 154 159 154 134 121 118 111 102 125 131 133 159 90 86 14
312 312 339 252 226 74 99 94 17 107 120 122 97 124 89 10 17 28 349 43 93 271 263 242 170 127 164 290 271 240 273 183 175 189 187 192 187 180 177 178 177 174 177 173 170 176 166 153 163 166 167 169 171 165 168 168 163 167 167 168 169 177 187 191 191 192 193 178 165 151 154 161 166 159 152 149 155 156 152 157 170 190 147 207 307 359
320 283 248 296 258 149 110 92 21 54 33 84 96 75 111 273 33 338 7 349 210 204 269 333 118 36 230 221 220 233 219 211 192 180 180 182 185 182 178 176 177 173 169 169 173 169 168 170 170 175 172 168 169 177 174 171 167 167 166 170 167 183 190 189 190 192 198 189 173 168 160 169 165 165 159 157 158 167 157 166 159 159 176 223 289 289
281 289 320 284 354 109 121 123 157 80 351 131 158 142 87 99 51 217 264 213 315 278 222 40 323 228 251 290 222 210 210 194 195 187 177 174 176 179 175 173 170 171 172 172 173 173 173 175 175 175 171 172 177 178 176 171 167 170 168 172 171 183 191 184 188 198 192 201 188 178 162 170 162 166 155 161 161 175 164 166 168 177 186 193 205 199
2 343 305 347 339 266 126 153 158 178 180 186 125 143 166 144 154 193 186 187 206 217 277 342 78 236 66 250 244 213 190 184 187 178 178 175 174 174 170 167 166 169 172 171 173 175 176 177 174 174 172 175 175 176 175 173 172 170 168 171 175 174 198 183 190 196 196 210 209 184 159 164 164 158 157 167 168 167 167 180 169 193 188 187 178 151
206 209 260 224 224 90 227 138 152 129 70 326 167 90 84 223 142 135 207 149 210 192 2 316 200 183 184 252 279 238 150 173 172 166 144 154 156 154 151 158 167 170 170 172 172 174 176 174 173 171 173 175 174 174 175 177 172 173 176 174 177 178 189 188 185 200 197 204 212 175 157 160 157 163 159 166 169 173 172 174 175 188 184 172 150 166
6 306 262 299 245 168 208 161 164 151 162 264 93 161 213 159 106 98 55 66 77 50 274 197 326 315 294 324 328 102 129 172 161 157 142 141 152 155 158 161 164 166 166 169 172 172 174 173 175 175 174 174 173 172 178 180 178 178 175 175 176 181 183 190 186 195 198 198 194 202 170 152 142 156 159 169 172 173 179 166 168 154 160 147 153 161
158 241 283 9 305 300 229 142 176 178 135 80 90 229 127 74 112 123 159 338 59 152 257 356 264 301 25 293 319 107 128 171 177 162 153 144 151 159 162 164 166 169 172 172 172 172 174 177 176 177 177 176 175 176 178 181 181 179 176 179 176 178 183 197 187 193 195 191 193 195 178 169 159 164 167 163 162 166 162 164 150 141 141 162 164 145
142 297 303 245 259 272 2 76 27 322 153 163 189 166 108 273 259 343 90 67 90 290 289 319 296 275 154 266 343 55 97 182 194 172 138 152 162 163 164 167 167 159 158 167 171 172 176 176 176 177 179 178 176 177 178 180 178 179 180 181 180 184 186 190 188 190 192 191 190 186 185 175 172 165 167 162 151 156 159 161 164 166 175 154 141 142
99 166 293 308 202 294 8 55 268 237 312 12 83 111 354 104 157 111 206 167 113 196 62 285 40 265 224 219 223 148 185 185 201 176 175 167 169 162 164 165 164 167 172 174 174 179 177 177 176 175 175 177 176 177 180 178 179 182 183 180 183 185 184 185 189 190 193 198 192 189 183 181 177 175 173 164 152 157 163 169 169 176 160 170 161 170
198 108 195 281 284 61 348 340 234 168 183 26 99 158 20 30 213 112 85 100 157 164 169 137 360 292 267 220 200 194 154 178 182 188 185 170 171 166 165 167 171 173 176 178 178 178 178 176 174 176 175 175 172 171 175 177 182 186 181 184 184 180 185 187 192 190 197 192 200 188 187 187 182 182 180 165 170 165 171 173 175 177 188 150 171 172
82 181 190 296 9 67 223 256 233 188 170 151 154 173 173 128 103 87 266 354 76 93 202 101 226 270 271 201 202 153 133 158 168 194 182 169 173 168 172 173 171 176 180 179 179 175 175 174 174 172 171 172 172 171 175 179 179 182 185 187 185 185 189 189 191 194 194 194 199 194 192 191 187 182 178 174 177 176 179 181 180 188 166 170 179 176
145 147 94 273 206 204 187 41 334 26 111 126 130 87 125 140 94 98 125 266 39 76 114 149 116 268 244 304 346 324 246 116 146 135 206 178 174 175 178 178 178 175 176 179 175 176 175 176 174 174 176 178 180 178 173 176 182 184 186 185 185 185 193 191 192 193 191 192 199 202 196 193 186 183 178 179 182 184 183 188 190 181 176 180 168 179
79 63 36 294 306 301 358 19 22 9 50 35 3 37 70 82 174 165 174 184 125 263 43 16 100 257 285 311 296 349 340 44 113 137 173 142 176 197 181 179 180 179 179 174 174 172 173 172 170 171 179 182 184 183 179 180 182 183 185 186 184 189 191 191 190 191 192 193 201 205 198 198 194 182 182 182 186 186 185 187 188 182 180 179 171 166
78 306 116 33 358 337 349 356 2 342 32 67 330 327 87 80 78 102 101 62 80 228 170 116 184 274 270 326 342 7 356 260 244 243 171 174 160 187 185 181 180 174 167 170 173 172 168 169 175 182 184 186 188 188 184 180 182 184 186 186 186 190 189 190 189 188 193 195 200 205 207 206 199 191 188 187 186 188 185 185 183 179 179 173 174 155
86 178 93 108 119 99 28 16 314 336 249 258 295 321 41 96 87 30 49 1 88 268 89 107 214 251 278 316 321 47 66 57 39 324 190 140 152 164 186 179 171 168 176 175 172 170 178 183 184 183 185 188 189 189 189 189 186 186 186 190 187 186 188 190 188 191 191 194 197 201 209 210 203 201 196 192 189 188 187 186 183 180 180 174 170 155
116 56 99 151 146 174 202 214 253 140 57 63 295 250 159 88 70 95 105 79 158 183 138 228 166 35 347 340 348 38 51 60 37 33 46 360 170 163 179 174 172 177 176 176 178 183 179 179 187 189 188 191 189 189 189 190 191 189 189 191 191 189 187 189 188 192 193 194 197 199 205 209 208 201 198 197 195 189 186 188 187 182 179 184 164 156
57 47 327 110 131 188 187 204 240 164 114 227 167 301 352 14 97 103 136 219 169 85 332 269 224 80 314 319 359 40 51 88 130 326 325 107 172 169 170 187 180 175 179 175 175 175 184 189 188 188 191 193 194 192 191 192 191 192 191 193 194 191 188 188 188 192 195 195 200 202 205 206 205 202 196 196 196 193 191 188 186 189 182 174 166 158
132 92 304 102 88 155 163 91 68 68 94 149 136 118 94 304 5 149 226 196 129 129 193 239 154 69 321 313 322 329 248 226 235 206 223 216 151 128 110 149 195 186 177 176 185 188 188 189 191 191 191 195 193 192 192 192 196 197 198 198 194 192 194 187 187 193 196 197 203 209 207 201 200 202 196 190 193 197 197 193 189 186 177 177 167 154
85 115 256 127 107 359 23 46 45 72 37 48 32 354 311 155 231 208 197 143 161 185 198 152 116 85 12 336 326 323 302 295 300 322 32 127 178 170 158 163 184 190 184 186 189 193 195 194 193 193 191 192 194 194 192 193 197 198 198 201 198 196 196 185 191 193 197 201 206 208 206 201 199 198 198 192 194 198 198 194 187 180 174 174 158 150
102 266 226 60 63 336 321 55 39 53 72 61 3 22 18 347 80 48 51 15 47 74 49 90 89 42 337 352 337 324 335 40 35 25 16 17 8 359 154 167 182 189 194 194 193 194 196 198 198 195 194 196 197 196 194 197 198 198 200 201 198 198 196 189 193 196 198 205 207 206 203 201 203 198 200 201 199 198 197 195 186 176 168 159 154 154
67 217 42 56 71 322 321 39 20 67 78 62 21 8 358 3 41 359 50 337 4 64 42 65 41 356 309 345 325 28 37 39 38 29 31 18 19 46 49 26 6 307 249 221 204 198 197 200 200 199 200 201 201 198 198 199 199 197 203 200 200 201 193 193 195 197 201 204 201 201 202 204 203 202 205 202 203 200 199 193 184 173 164 158 157 162
131 107 67 54 69 280 277 31 64 60 42 15 348 326 321 29 113 90 49 30 10 266 76 77 208 231 289 308 12 32 40 38 36 18 9 22 40 42 38 46 57 51 33 5 340 312 268 221 204 202 204 205 201 200 205 199 195 201 203 200 203 195 191 196 198 199 202 201 198 200 201 200 202 205 206 206 205 201 197 194 187 170 164 171 167 157
38 96 152 178 126 228 282 325 19 54 52 199 290 320 334 114 90 68 45 28 15 23 63 86 338 297 297 338 30 11 49 53 48 30 28 26 24 32 33 33 50 68 67 47 1 349 320 284 284 264 231 212 206 206 205 198 199 204 201 201 195 190 196 196 200 200 203 200 199 198 198 198 200 204 206 205 203 200 200 195 192 179 174 164 160 163
144 89 162 152 102 208 278 24 45 226 207 195 59 23 82 91 82 86 68 38 28 27 23 16 349 338 327 311 297 274 139 88 46 38 28 26 26 30 24 25 29 34 46 42 9 321 319 326 260 241 251 252 239 230 212 214 213 207 202 197 193 197 195 198 199 202 202 201 200 197 197 198 199 203 203 201 199 199 201 198 184 174 172 170 170 170
160 146 174 53 126 65 55 64 113 248 213 167 200 76 10 84 97 56 39 31 25 24 13 5 341 325 320 324 326 253 212 172 81 54 32 13 15 17 26 21 12 12 12 354 338 351 343 322 318 244 229 234 242 228 212 215 213 206 208 195 197 197 199 197 199 203 202 202 199 198 197 196 198 200 199 197 196 198 201 197 179 176 174 174 177 174
163 93 100 133 61 169 190 138 186 159 90 347 15 4 24 11 337 24 92 26 15 16 16 10 351 341 335 336 326 318 193 135 54 32 22 13 357 356 11 14 10 8 2 351 340 323 320 318 358 354 262 208 191 283 274 253 213 206 205 197 203 199 200 197 201 204 201 202 200 200 198 196 196 197 196 194 196 201 201 193 179 173 171 174 178 170
166 173 227 159 253 123 129 77 36 70 182 256 231 309 319 302 284 240 120 74 21 11 10 11 359 345 342 336 349 331 187 57 33 360 353 357 353 355 2 10 9 9 8 359 353 346 346 352 356 15 39 22 6 329 245 234 240 218 202 204 199 195 201 201 207 205 201 204 202 200 197 195 195 197 196 194 199 201 201 190 175 174 175 177 175 174
21 55 135 155 174 104 101 142 192 170 236 190 297 308 305 307 312 251 108 61 5 6 0 5 7 356 351 344 340 336 72 94 132 284 330 340 349 0 2 9 16 20 18 10 2 350 344 356 4 16 27 34 29 359 346 304 226 214 217 206 198 196 199 205 209 204 203 206 203 200 197 195 196 197 196 197 201 199 196 184 178 178 175 178 172 166
33 0 30 77 82 151 143 127 199 203 220 297 304 310 301 311 298 128 160 260 358 344 358 2 16 6 353 357 342 28 45 73 21 329 323 329 339 1 3 4 14 16 16 11 10 359 344 357 20 28 26 23 15 15 17 27 46 44 17 351 340 305 246 226 214 205 204 204 200 199 198 199 199 199 197 200 201 201 195 177 169 171 174 171 166 156
358 340 44 159 140 126 98 106 43 7 318 305 303 304 304 296 96 129 202 176 302 333 356 360 22 19 13 19 12 33 37 35 11 316 315 319 10 19 358 345 359 27 25 15 9 3 6 12 20 32 35 28 15 15 23 36 51 51 53 50 43 18 355 335 306 269 229 207 199 200 204 203 201 201 203 201 201 197 183 172 173 171 171 167 162 160
24 50 310 59 34 26 126 108 166 237 242 274 303 299 291 9 175 199 209 234 286 334 2 12 19 21 27 36 24 20 357 351 328 330 346 2 11 12 335 316 354 20 19 21 19 16 5 12 15 17 26 31 28 24 28 30 62 74 63 55 53 45 29 35 15 341 293 238 212 209 209 206 206 206 204 204 196 186 183 182 175 175 173 168 162 156
218 97 252 2 220 35 39 85 90 144 296 343 305 331 5 102 209 197 208 62 16 2 16 10 6 2 10 31 30 12 357 355 352 344 340 344 358 358 342 352 12 14 10 8 9 5 4 9 10 11 16 15 25 33 21 47 46 15 38 84 91 83 77 70 65 52 9 345 317 275 234 218 215 212 206 197 192 187 181 169 168 169 168 164 151 139
180 88 285 2 55 161 103 144 189 196 245 323 17 116 337 67 130 11 74 97 4 31 6 359 359 355 3 350 27 5 22 352 345 345 337 332 335 334 327 346 5 12 7 15 14 359 353 11 8 4 6 14 19 30 47 65 57 38 31 18 347 352 1 47 89 83 66 2 323 320 318 284 229 201 190 185 171 162 146 143 138 128 122 108 121 124
277 144 181 140 304 109 178 182 230 230 271 321 37 73 89 41 50 33 77 81 1 351 12 8 7 351 347 319 318 324 331 308 288 299 311 307 302 306 329 339 347 2 356 349 4 360 358 354 7 2 358 10 20 27 37 40 55 57 19 322 318 329 341 345 7 65 104 90 338 338 341 20 22 20 22 22 44 93 108 114 121 120 118 121 132 137
12 113 120 85 78 71 55 68 136 192 303 343 11 82 88 58 17 34 75 106 258 273 312 302 323 316 314 331 342 235 229 238 244 272 291 300 313 318 329 332 334 342 339 338 354 359 340 332 349 16 359 356 19 35 35 28 38 28 355 339 340 327 348 9 20 358 355 83 112 34 60 74 74 77 72 73 77 75 75 98 112 123 138 144 151 162
82 144 60 99 189 53 69 286 247 223 301 174 208 263 241 159 185 170 164 250 280 290 300 303 284 286 302 302 331 312 312 319 310 295 290 300 314 319 328 331 326 330 327 331 326 333 337 348 343 349 359 354 354 9 37 72 37 8 339 1 354 358 17 59 82 51 14 36 348 327 147 127 140 131 129 134 139 144 150 153 156 156 160 138 144 146
360 84 83 99 129 110 154 186 180 165 226 212 172 134 253 278 274 230 214 214 229 265 269 285 305 305 315 341 348 343 338 350 358 352 350 345 334 333 336 336 331 328 326 328 320 329 330 340 342 335 336 337 342 341 338 23 117 144 16 15 359 356 25 11 17 173 168 161 49 335 328 102 108 102 93 83 117 136 145 148 145 157 161 169 170 163
170 82 114 175 89 56 49 41 63 28 4 326 314 287 241 213 240 294 286 284 272 279 278 274 239 264 321 339 356 8 16 7 7 14 32 24 17 10 2 359 357 347 332 333 328 335 333 334 335 336 336 328 327 328 326 326 334 320 140 150 163 148 86 326 314 322 336 86 108 83 7 91 103 123 121 113 81 52 49 117 173 178 190 232 194 178
59 69 87 76 83 48 171 213 145 85 67 316 290 245 249 242 208 254 304 319 308 307 309 337 346 356 13 21 19 15 24 11 7 12 23 19 15 6 5 4 2 10 13 7 347 340 341 339 342 346 348 337 331 319 304 306 309 301 307 63 168 173 140 161 174 237 295 308 9 55 85 63 58 73 96 108 112 106 79 42 63 76 144 194 190 195
109 153 121 135 143 164 223 191 176 138 150 224 215 247 241 234 178 224 281 280 292 271 259 331 358 16 22 13 19 28 21 22 16 17 23 17 8 2 6 10 4 1 359 357 7 355 352 343 349 356 358 350 340 334 314 297 299 307 310 307 290 9 338 300 247 178 160 166 149 90 78 80 63 46 53 56 81 111 118 106 47 41 43 45 108 170